Regional Weather Roundup
Issued by NWS

Home | Current Version | Previous Version | Text Only | Print | Product List | Glossary Off
Versions: 1 2 3 4 5 6 7 8 9 10 11 12 13 14 15 16 17 18 19 20 21 22 23 24 25 26 27 28 29 30 31 32 33 34 35 36 37 38 39 40 41 42 43 44 45 46 47 48 49 50

785
ASUS43 KTOP 170759
RWRKS

WEATHER ROUNDUP FOR KANSAS
NATIONAL WEATHER SERVICE GOODLAND KS
200 AM CST WED JAN 17 2018

NOTE:  "FAIR" INDICATES FEW OR NO CLOUDS BELOW 12,000 FEET WITH NO
SIGNIFICANT WEATHER AND/OR OBSTRUCTIONS TO VISIBILITY.

KSZ001>006-013>018-027>032-041>047-170900-
NORTHWEST KANSAS

CITY           SKY/WX    TMP DP  RH WIND       PRES   REMARKS
GOODLAND       CLEAR     12   0  58 SW13      30.32F WCI  -3
HAYS           CLOUDY     0  -4  83 SW3       30.55
HILL CITY      CLOUDY     6  -1  73 S7        30.52S
RUSSELL        CLOUDY     3  -1  83 S10       30.55F WCI -12
$$

KSZ061>065-074>080-084>089-170900-
SOUTHWEST KANSAS

CITY           SKY/WX    TMP DP  RH WIND       PRES   REMARKS
DODGE CITY     CLOUDY     2  -7  66 S7        30.51F
GARDEN CITY    CLOUDY     3  -6  66 S9        30.47F
GREAT BEND     CLOUDY     3  -1  83 S9        30.58F
LIBERAL        CLEAR      4  -8  57 S8        30.49F
$$

KSZ066>073-081>083-090>101-170900-
SOUTHEAST KANSAS

CITY           SKY/WX    TMP DP  RH WIND       PRES   REMARKS
CHANUTE        CLOUDY     2  -3  80 CALM      30.70F
COFFEYVILLE    PTCLDY    -1  -4  87 CALM      30.73F
HUTCHINSON     CLOUDY     1  -3  83 CALM      30.62F
MEDICINE LODGE   N/A      1  -2  87 NE3       30.64F
NEWTON         CLOUDY     3   0  87 SW7       30.64S
PARSONS        CLOUDY    -3  -7  82 CALM      30.72F
WICHITA INTL   CLOUDY     3   0  87 SW5       30.66S
WICHITA JABRA  CLOUDY     4   2  91 SW6       30.65S
WICHITA MCCONL CLOUDY     4   0  83 SW5       30.66S
WINFIELD       CLOUDY     4   1  88 S5        30.70F
$$

KSZ007>012-019>026-033>040-048>060-102>105-170900-
NORTHEAST KANSAS

CITY           SKY/WX    TMP DP  RH WIND       PRES   REMARKS
CONCORDIA      CLOUDY     7   2  80 S10       30.59F WCI  -8
EMPORIA        CLOUDY     1  -3  83 S6        30.66S
LAWRENCE       CLOUDY    -4  -9  79 E3        30.69F
MANHATTAN      CLOUDY    -1  -6  79 CALM      30.66F
OLATHE IND     CLOUDY    -1  -4  87 CALM      30.67F
OLATHE EXE     CLOUDY     1  -2  87 CALM      30.66F
SALINA         CLOUDY     0  -3  87 S5        30.64S
TOPEKA BILLARD PTCLDY    -2  -6  83 E3        30.68F
TOPEKA FORBES  CLOUDY    -3  -8  79 CALM      30.65F
$$




USA.gov is the U.S. government's official web portal to all federal, state and local government web resources and services.